DO1MDT Weather Reports


time (UTC)temp
C
wind
direction
speed
KPH
gust
KPH
rain 1hr
cm
rain 24hr
cm
rain mn
cm
humidity
%
barometer
mb
20260507093057 7 244 4.8 14.5 0.00 3.94 0.91 62 1014.6
20260507091557 7 256 3.2 11.3 0.00 3.94 0.91 62 1014.4
20260507090111 7 230 4.8 12.9 0.00 3.94 0.91 62 1014.2
20260507084555 7 246 3.2 12.9 0.00 3.96 0.91 62 1014.1
20260507083056 7 225 8.0 14.5 0.00 3.96 0.91 62 1013.9
20260507081552 7 202 4.8 14.5 0.00 3.96 0.91 62 1013.8
20260507080055 7 192 4.8 14.5 0.00 3.96 0.91 62 1013.7
20260507074557 7 237 3.2 14.5 0.00 4.09 0.91 62 1013.5
20260507073052 7 240 1.6 14.5 0.00 4.09 0.91 62 1013.4
20260507071556 7 217 3.2 14.5 0.00 4.09 0.91 62 1013.1
20260507070056 7 221 4.8 12.9 0.00 4.09 0.91 62 1013.0
20260507064607 7 223 3.2 9.7 0.00 4.34 0.91 62 1013.0
20260507063055 7 225 3.2 8.0 0.00 4.34 0.91 62 1012.7
20260507061553 7 204 3.2 12.9 0.00 4.34 0.91 62 1012.5
20260507060058 7 230 1.6 12.9 0.00 4.34 0.91 62 1012.3
20260507054606 7 221 3.2 16.1 0.00 4.78 0.91 62 1012.1
20260507053055 7 234 3.2 14.5 0.00 4.78 0.91 62 1012.0
20260507051555 7 232 1.6 16.1 0.00 4.75 0.89 62 1011.8
20260507050056 7 231 3.2 14.5 0.00 4.75 0.89 62 1011.5
20260507044554 7 228 6.4 16.1 0.00 5.54 0.89 62 1011.4
20260507043059 7 239 8.0 17.7 0.00 5.54 0.89 62 1011.2
20260507041603 7 252 3.2 14.5 0.00 5.54 0.89 62 1011.0
20260507040058 7 250 4.8 14.5 0.03 5.54 0.89 62 1011.0
20260507034556 7 246 3.2 14.5 0.08 6.25 0.89 61 1011.0
20260507033054 7 232 3.2 19.3 0.08 6.22 0.86 62 1010.9
20260507031558 7 246 4.8 19.3 0.08 6.22 0.86 61 1010.9
20260507024557 8 217 4.8 12.9 0.18 6.91 0.81 61 1010.6
20260507023110 8 240 4.8 14.5 0.25 6.88 0.79 61 1010.4
20260507021558 8 222 4.8 16.1 0.25 6.86 0.76 61 1010.2
20260507020056 8 184 1.6 16.1 0.18 6.78 0.69 61 1010.0
20260507014605 8 202 6.4 11.3 0.18 7.57 0.64 61 1009.8
20260507013110 8 208 1.6 6.4 0.10 7.47 0.53 61 1009.8
20260507011552 8 215 1.6 14.5 0.13 7.44 0.51 61 1009.5
20260507010056 8 209 0.0 17.7 0.13 7.42 0.46 61 1009.5
20260507004557 8 212 4.8 16.1 0.15 8.03 0.46 61 1009.2
20260507003056 8 192 1.6 14.5 0.13 7.98 0.41 61 1009.2
20260507001620 8 217 1.6 16.1 0.10 7.95 0.36 61 1009.0
20260506234555 8 207 4.8 14.5 0.13 8.46 0.28 61 1009.1
20260506233109 8 185 3.2 16.1 0.15 8.46 0.28 61 1008.9
20260506231555 8 210 4.8 17.7 0.18 8.43 0.25 61 1008.8
20260506230055 8 223 1.6 17.7 0.20 8.38 0.20 61 1008.8
20260506224552 8 201 4.8 17.7 0.20 8.74 0.15 61 1008.7
20260506223123 8 213 6.4 17.7 0.20 8.69 0.10 60 1008.7
20260506221555 9 210 6.4 17.7 0.25 8.64 0.08 60 1008.6
20260506220056 9 221 3.2 20.9 0.18 8.56 0.00 60 1008.5
20260506214604 10 213 6.4 16.1 0.18 8.53 8.51 60 1008.6
20260506213056 10 196 9.7 17.7 0.38 8.48 8.46 60 1008.4
20260506211557 10 0 3.2 16.1 0.56 8.41 8.38 60 1008.3
20260506210126 10 204 6.4 16.1 0.91 8.41 8.38 60 1008.2
20260506204602 10 220 6.4 19.3 1.22 8.36 8.33 60 1008.1
20260506203101 10 211 6.4 17.7 1.12 8.08 8.08 59 1008.2
20260506201558 10 184 3.2 8.0 1.09 7.82 7.80 59 1008.0
20260506200136 10 131 1.6 11.3 0.84 7.49 7.47 60 1008.0
20260506194612 10 129 1.6 8.0 0.51 7.14 7.11 60 1007.9
20260506193058 10 152 1.6 8.0 0.36 6.93 6.91 60 1007.9
20260506191600 10 158 1.6 9.7 0.15 6.73 6.71 60 1007.7
20260506190052 10 0 0.0 3.2 0.08 6.63 6.60 60 1007.7
20260506184556 10 0 0.0 1.6 0.05 6.58 6.58 60 1007.5
20260506183055 10 194 1.6 6.4 0.08 6.58 6.55 60 1007.2
20260506181553 10 194 1.6 6.4 0.10 6.58 6.55 60 1007.2
20260506180108 10 0 0.0 6.4 0.08 6.55 6.53 60 1007.0
20260506174559 10 194 1.6 4.8 0.08 6.53 6.50 60 1006.9
20260506173116 10 194 1.6 8.0 0.00 6.48 6.45 60 1007.0
20260506171601 10 195 3.2 11.3 0.00 6.45 6.43 60 1006.9
20260506170058 10 216 1.6 9.7 0.00 6.45 6.43 60 1006.8
20260506164553 10 227 1.6 9.7 0.00 6.45 6.43 60 1006.7
20260506163107 10 0 1.6 9.7 0.00 6.45 6.43 60 1006.6
20260506161557 10 221 4.8 11.3 0.00 6.45 6.43 60 1006.5
20260506160106 10 224 4.8 11.3 0.10 6.45 6.43 60 1006.7
20260506154555 10 225 3.2 9.7 0.28 6.45 6.43 60 1006.6
20260506153055 10 221 3.2 16.1 0.36 6.45 6.43 60 1006.8
20260506151555 10 232 3.2 14.5 0.36 6.45 6.43 60 1006.8
20260506150055 10 244 3.2 11.3 0.28 6.30 6.30 60 1006.8
20260506144554 10 246 3.2 11.3 0.18 6.15 6.12 60 1006.7
20260506143054 10 243 4.8 11.3 0.28 6.10 6.07 60 1006.6
20260506141551 10 235 3.2 14.5 0.28 6.07 6.05 60 1006.6
20260506140053 10 244 1.6 9.7 0.23 6.02 5.99 61 1006.7
20260506134616 10 232 3.2 17.7 0.18 5.94 5.92 61 1006.8
20260506133054 10 229 3.2 11.3 0.03 5.82 5.79 61 1006.8
20260506131609 10 0 3.2 12.9 0.00 5.77 5.74 61 1006.7
20260506130055 10 232 4.8 14.5 0.00 5.77 5.74 61 1006.7
20260506124556 10 227 4.8 11.3 0.00 5.77 5.74 61 1006.7
20260506123057 10 238 4.8 14.5 0.08 5.77 5.74 61 1006.8
20260506121604 10 238 1.6 17.7 0.10 5.77 5.74 61 1006.6
20260506120056 10 234 4.8 11.3 0.10 5.77 5.74 61 1006.4
20260506114556 9 227 3.2 11.3 0.08 5.74 5.71 61 1006.5
20260506113055 9 240 6.4 16.1 0.05 5.69 5.66 62 1006.5
20260506111610 9 227 4.8 9.7 0.03 5.64 5.64 62 1006.7
20260506110055 9 227 3.2 9.7 0.03 5.64 5.64 62 1006.6
20260506104554 9 236 4.8 8.0 0.03 5.64 5.64 62 1006.5
20260506103059 8 225 8.0 16.1 0.00 5.64 5.61 62 1006.5
20260506101554 8 222 4.8 12.9 0.00 5.61 5.59 62 1006.4
20260506100053 8 227 6.4 16.1 0.03 5.61 5.59 63 1006.5
20260506094556 8 226 1.6 9.7 0.08 5.61 5.59 63 1006.4